Location: Pinon Hills
(34.4429°N, 117.6403°W)
Time: 04:57:46
(UTC-07:00)

Uosat F - Visible Passes

Search period start: 20 September 2014 00:00
Search period end: 30 September 2014 00:00
Orbit: 751 x 763 km, 98.7° (Epoch: 19 September)

Date Brightness Start Highest point End Pass type
(mag) Time Alt. Az. Time Alt. Az. Time Alt. Az.
20 Sep 14.2 03:53:16 10° E 03:53:22 10° E 03:53:28 10° E visible
20 Sep 11.0 05:27:34 10° N 05:32:34 72° WNW 05:37:34 10° SSW visible
21 Sep 12.1 04:48:39 10° NNE 04:53:27 44° E 04:58:14 10° S visible
22 Sep 13.7 04:10:49 10° NE 04:14:07 17° E 04:17:24 10° SE visible
22 Sep 11.4 05:48:18 10° N 05:53:03 44° WNW 05:57:48 10° SW visible
23 Sep 11.3 05:09:00 10° NNE 05:14:02 73° ESE 05:19:03 10° S visible
24 Sep 13.0 04:30:30 10° NE 04:34:48 28° E 04:39:06 10° SSE visible
24 Sep 12.0 06:09:15 10° NNW 06:13:28 28° WNW 06:17:41 10° SW visible
25 Sep 14.1 03:54:26 10° E 03:55:22 11° E 03:56:19 10° ESE visible
25 Sep 11.0 05:29:33 10° N 05:34:33 69° WNW 05:39:33 10° SSW visible
26 Sep 12.1 04:50:36 10° NNE 04:55:26 46° E 05:00:15 10° S visible
27 Sep 13.6 04:12:43 10° NE 04:16:07 18° E 04:19:29 10° SE visible
27 Sep 11.4 05:50:17 10° N 05:55:01 42° WNW 05:59:45 10° SW visible
28 Sep 11.2 05:10:58 10° NNE 05:16:01 76° ESE 05:21:02 10° S visible
29 Sep 12.9 04:32:26 10° NE 04:36:47 29° E 04:41:08 10° SSE visible
29 Sep 12.0 06:11:15 10° NNW 06:15:26 27° WNW 06:19:36 10° SW visible
